Location: El Manguito
(10.2358°N, 67.3634°W)
Time: 20:13:08
(UTC+00:00)

Aurora 2 Rocket - Pass Details

Date: 11 December 2024
Orbit: 386 x 1590 km, 25.0° (Epoch: 12 January)

Event Time Altitude Azimuth Distance (km) Brightness Sun altitude
Exits shadow 08:52:11 49° 337° (NNW) 1,138 3.5 -24.7°
Maximum altitude 08:53:23 58° 19° (NNE) 985 3.4 -24.5°
Drops below altitude 10° 08:58:20 10° 99° (E) 2,115 6.3 -23.3°
Sets 09:00:23 0° 103° (ESE) 2,876 7.4 -22.9°
